| time (UTC) | temp F | wind direction | speed MPH | gust MPH | rain 1hr in | rain 24hr in | rain mn in | humidity % | barometer mb |
| 20260503030034 | 47 | 339 | 0.0 | 0.0 | 0.00 | 0.00 | 0.00 | 60 | 1018.6 |
| 20260503024528 | 47 | 339 | 0.0 | 0.0 | 0.00 | 0.00 | 0.00 | 58 | 1018.5 |
| 20260503023028 | 47 | 339 | 0.0 | 0.0 | 0.00 | 0.00 | 0.00 | 57 | 1018.4 |
| 20260503021527 | 48 | 339 | 0.0 | 0.0 | 0.00 | 0.00 | 0.00 | 56 | 1018.3 |
| 20260503020027 | 49 | 339 | 0.0 | 0.0 | 0.00 | 0.00 | 0.00 | 55 | 1018.3 |
| 20260503014526 | 49 | 339 | 0.0 | 0.0 | 0.00 | 0.00 | 0.00 | 53 | 1018.0 |
| 20260503013036 | 51 | 339 | 0.0 | 0.0 | 0.00 | 0.00 | 0.00 | 48 | 1017.9 |
| 20260503011526 | 52 | 339 | 0.0 | 0.0 | 0.00 | 0.00 | 0.00 | 47 | 1017.9 |
| 20260503010025 | 53 | 339 | 0.0 | 0.0 | 0.00 | 0.00 | 0.00 | 43 | 1017.9 |
| 20260503004533 | 54 | 339 | 0.0 | 0.0 | 0.00 | 0.00 | 0.00 | 39 | 1017.9 |
| 20260503003036 | 54 | 339 | 0.0 | 0.0 | 0.00 | 0.00 | 0.00 | 39 | 1017.8 |
| 20260503001524 | 55 | 328 | 0.0 | 1.0 | 0.00 | 0.00 | 0.00 | 38 | 1017.7 |
| 20260503000026 | 55 | 328 | 0.0 | 0.0 | 0.00 | 0.00 | 0.00 | 37 | 1017.7 |
| 20260502233030 | 55 | 320 | 3.0 | 7.0 | 0.00 | 0.00 | 0.00 | 37 | 1017.9 |
| 20260502231521 | 57 | 329 | 2.0 | 9.0 | 0.00 | 0.00 | 0.00 | 34 | 1017.9 |
| 20260502230025 | 58 | 297 | 3.0 | 10.0 | 0.00 | 0.00 | 0.00 | 33 | 1018.0 |
| 20260502224520 | 58 | 339 | 4.0 | 7.0 | 0.00 | 0.00 | 0.00 | 35 | 1018.0 |
| 20260502223029 | 56 | 331 | 2.0 | 7.0 | 0.00 | 0.00 | 0.00 | 35 | 1018.0 |
| 20260502221518 | 58 | 335 | 4.0 | 6.0 | 0.00 | 0.00 | 0.00 | 33 | 1018.0 |
| 20260502220021 | 56 | 337 | 0.0 | 1.0 | 0.00 | 0.00 | 0.00 | 35 | 1018.0 |
| 20260502214516 | 56 | 337 | 2.0 | 6.0 | 0.00 | 0.00 | 0.00 | 35 | 1018.1 |
| 20260502213015 | 57 | 290 | 2.0 | 8.0 | 0.00 | 0.00 | 0.00 | 35 | 1018.1 |
| 20260502211514 | 55 | 329 | 2.0 | 8.0 | 0.00 | 0.00 | 0.00 | 36 | 1018.1 |
| 20260502210013 | 56 | 31 | 2.0 | 9.0 | 0.00 | 0.00 | 0.00 | 36 | 1018.2 |
| 20260502204513 | 58 | 360 | 0.0 | 1.0 | 0.00 | 0.00 | 0.00 | 35 | 1018.2 |
| 20260502203012 | 56 | 295 | 3.0 | 8.0 | 0.00 | 0.00 | 0.00 | 36 | 1018.4 |
| 20260502201515 | 56 | 317 | 4.0 | 11.0 | 0.00 | 0.00 | 0.00 | 36 | 1018.5 |
| 20260502200012 | 57 | 322 | 5.0 | 11.0 | 0.00 | 0.00 | 0.00 | 33 | 1018.7 |
| 20260502194526 | 56 | 335 | 3.0 | 12.0 | 0.00 | 0.00 | 0.00 | 36 | 1018.7 |
| 20260502193010 | 58 | 360 | 4.0 | 8.0 | 0.00 | 0.00 | 0.00 | 33 | 1018.7 |
| 20260502191509 | 58 | 28 | 3.0 | 9.0 | 0.00 | 0.00 | 0.00 | 33 | 1018.8 |
| 20260502190011 | 58 | 327 | 5.0 | 11.0 | 0.00 | 0.00 | 0.00 | 32 | 1018.9 |
| 20260502184508 | 58 | 347 | 6.0 | 10.0 | 0.00 | 0.00 | 0.00 | 33 | 1019.0 |
| 20260502183010 | 58 | 317 | 0.0 | 9.0 | 0.00 | 0.00 | 0.00 | 33 | 1019.0 |
| 20260502181516 | 57 | 321 | 4.0 | 10.0 | 0.00 | 0.00 | 0.00 | 32 | 1019.1 |
| 20260502163159 | 56 | 330 | 4.0 | 12.0 | 0.00 | 0.00 | 0.00 | 34 | 1019.9 |
| 20260502161603 | 55 | 65 | 1.0 | 10.0 | 0.00 | 0.00 | 0.00 | 36 | 1020.1 |
| 20260502151559 | 53 | 19 | 0.0 | 6.0 | 0.00 | 0.00 | 0.00 | 43 | 1020.2 |
| 20260502123037 | 43 | 81 | 0.0 | 1.0 | 0.00 | 0.00 | 0.00 | 67 | 1019.5 |
| 20260502121527 | 43 | 86 | 0.0 | 5.0 | 0.00 | 0.00 | 0.00 | 70 | 1019.3 |
| 20260502114523 | 41 | 44 | 0.0 | 1.0 | 0.00 | 0.00 | 0.00 | 76 | 1018.9 |
| 20260502113022 | 41 | 46 | 0.0 | 1.0 | 0.00 | 0.00 | 0.00 | 77 | 1018.8 |
| 20260502111521 | 41 | 46 | 0.0 | 0.0 | 0.00 | 0.00 | 0.00 | 77 | 1018.8 |
| 20260502110023 | 41 | 46 | 0.0 | 0.0 | 0.00 | 0.00 | 0.00 | 77 | 1018.8 |
| 20260502104523 | 40 | 46 | 0.0 | 1.0 | 0.00 | 0.00 | 0.00 | 77 | 1018.7 |
| 20260502103019 | 40 | 45 | 0.0 | 1.0 | 0.00 | 0.00 | 0.00 | 77 | 1018.7 |
| 20260502101518 | 40 | 46 | 0.0 | 1.0 | 0.00 | 0.00 | 0.00 | 78 | 1018.7 |
| 20260502071505 | 41 | 46 | 0.0 | 1.0 | 0.00 | 0.00 | 0.00 | 81 | 1018.2 |
| 20260502070003 | 41 | 46 | 0.0 | 1.0 | 0.00 | 0.00 | 0.00 | 80 | 1018.3 |
| 20260502064614 | 42 | 44 | 0.0 | 0.0 | 0.00 | 0.00 | 0.00 | 80 | 1018.2 |
| 20260502063107 | 43 | 51 | 0.0 | 1.0 | 0.00 | 0.00 | 0.00 | 79 | 1018.1 |
| 20260502061612 | 44 | 53 | 0.0 | 1.0 | 0.00 | 0.00 | 0.00 | 79 | 1018.2 |
| 20260502060053 | 44 | 55 | 0.0 | 1.0 | 0.00 | 0.00 | 0.00 | 78 | 1018.1 |
| 20260502054552 | 45 | 55 | 0.0 | 1.0 | 0.00 | 0.00 | 0.00 | 77 | 1018.2 |
| 20260502053057 | 45 | 55 | 0.0 | 1.0 | 0.00 | 0.00 | 0.00 | 76 | 1018.1 |
| 20260502051547 | 46 | 55 | 0.0 | 1.0 | 0.00 | 0.00 | 0.00 | 76 | 1018.1 |
| 20260502050048 | 46 | 52 | 0.0 | 3.0 | 0.00 | 0.01 | 0.00 | 75 | 1018.1 |
| 20260502044545 | 46 | 59 | 0.0 | 1.0 | 0.00 | 0.01 | 0.00 | 74 | 1018.1 |
| 20260502043050 | 47 | 56 | 0.0 | 1.0 | 0.00 | 0.01 | 0.00 | 72 | 1018.2 |
| 20260502041550 | 47 | 57 | 1.0 | 4.0 | 0.00 | 0.01 | 0.00 | 71 | 1018.2 |
| 20260502040044 | 48 | 58 | 0.0 | 3.0 | 0.00 | 0.02 | 0.00 | 69 | 1018.2 |
| 20260502034545 | 48 | 59 | 0.0 | 1.0 | 0.00 | 0.02 | 0.00 | 69 | 1018.1 |
| 20260502033042 | 49 | 57 | 0.0 | 1.0 | 0.00 | 0.02 | 0.00 | 70 | 1018.2 |
| 20260502031543 | 49 | 57 | 0.0 | 0.0 | 0.00 | 0.02 | 0.00 | 69 | 1018.1 |